Regional Weather Roundup
Issued by NWS

Home | Current Version | Previous Version | Graphics & Text | Print | Product List | Glossary On
Versions: 1 2 3 4 5 6 7 8 9 10 11 12 13 14 15 16 17 18 19 20 21 22 23 24 25 26 27 28 29 30 31 32 33 34 35 36 37 38 39 40 41 42 43 44 45 46 47 48 49 50
000
ASUS43 KOAX 220502
RWRNE

WEATHER ROUNDUP FOR NEBRASKA
NATIONAL WEATHER SERVICE OMAHA NE
1200 AM CDT FRI MAY 22 2015

NOTES: SATELLITE DATA IS BEING USED TO AUGMENT CLOUD COVER ABOVE
       12000 FEET.
       "FAIR" INDICATES FEW OR NO CLOUDS BELOW 12,000 FEET WITH NO
       SIGNIFICANT WEATHER AND/OR OBSTRUCTIONS TO VISIBILITY.

  * THESE STATIONS DO NOT REPORT WEATHER SUCH AS RAIN...SNOW OR FOG.

NEZ001>004-019>022-054>056-220600-
NEBRASKA PANHANDLE

CITY           SKY/WX    TMP DP  RH WIND       PRES   REMARKS
SCOTTSBLUFF    CLOUDY    52  44  74 SE13      30.13F
ALLIANCE       CLOUDY    52  44  74 SE12      30.15F
CHADRON        CLOUDY    55  44  66 SE14      30.14S
KIMBALL          N/A    N/A N/A N/A MISG        N/A
SIDNEY         CLOUDY    50  44  80 S9        30.17F
$$

NEZ057>060-069>072-079>082-220600-
SOUTHWEST NEBRASKA

CITY           SKY/WX    TMP DP  RH WIND       PRES   REMARKS
NORTH PLATTE   CLOUDY    54  41  61 SE7       30.21S
IMPERIAL       CLOUDY    53  45  74 S7        30.18F
LEXINGTON      MOCLDY    49  42  76 S6        30.22S
MCCOOK         MOCLDY    49  43  80 SE6       30.20F
$$

NEZ005>010-023>029-035>040-094-220600-
NORTH CENTRAL NEBRASKA

CITY           SKY/WX    TMP DP  RH WIND       PRES   REMARKS
VALENTINE      CLEAR     50  36  58 S9        30.18S
AINSWORTH      CLEAR     45  38  77 S7        30.20R
BROKEN BOW     PTCLDY    44  41  89 CALM      30.21R
O`NEILL        CLEAR     54  38  56 SW3       30.20F
ORD            CLEAR     44  37  76 SW3       30.20S
$$

NEZ041-046>049-061>064-073>077-083>087-220600-
SOUTH CENTRAL NEBRASKA

CITY           SKY/WX    TMP DP  RH WIND       PRES   REMARKS
GRAND ISLAND   MOCLDY    50  42  74 S6        30.23S
HASTINGS       MOCLDY    53  40  61 S5        30.23R
KEARNEY *      MOCLDY    52  39  62 S5        30.23S
$$

NEZ011>018-030>034-042>045-220600-
NORTHEAST NEBRASKA

CITY           SKY/WX    TMP DP  RH WIND       PRES   REMARKS
NORFOLK        CLEAR     53  38  56 SW6       30.18F
BLAIR          CLEAR     56  40  55 W8        30.18R
COLUMBUS *     CLEAR     54  37  54 W6        30.23S
FREMONT        CLEAR     59  40  49 SW8       30.19S
TEKAMAH        CLEAR     56  41  57 W9        30.16S
$$

NEZ050>053-065>068-078-088>093-220600-
SOUTHEAST NEBRASKA

CITY           SKY/WX    TMP DP  RH WIND       PRES   REMARKS
LINCOLN        PTCLDY    56  42  59 W3        30.22R
OMAHA EPPLEY   PTCLDY    62  40  44 SW6       30.18R
FALLS CITY     PTCLDY    55  44  66 SW7       30.20R
PLATTSMOUTH    CLEAR     57  39  51 SW8       30.19R
$$

NEZ044-045-051>053-067-220600-
OMAHA AREA

CITY           SKY/WX    TMP DP  RH WIND       PRES   REMARKS
OMAHA EPPLEY   PTCLDY    62  40  44 SW6       30.18R
BLAIR          CLEAR     56  40  55 W8        30.18R
FREMONT        CLEAR     59  40  49 SW8       30.19S
OFFUTT AFB     CLEAR     58  42  55 W5        30.18R
PLATTSMOUTH    CLEAR     57  39  51 SW8       30.19R
$$


USA.gov is the U.S. government's official web portal to all federal, state and local government web resources and services.